Volver al catálogo

THOR ABLESTAR DEB

ActivoLEO
NORAD 13511·DEBRIS·🇺🇸 United States

Lanzado Jun 29, 1961 desde Cape Canaveral Space Force Station

Loading…

Próximos Pases (próximas 24 horas)

TLE

ActualizadoSource: Space-Track

Época: Sep 13, 2026, 07:36 UTC

1 13511U 61015KU  26256.31715245  .00000092  00000-0  19289-3 0  9996
2 13511  65.8441   6.6060 0113477 134.3390 258.0601 13.67869289303158

Sigue THOR ABLESTAR DEB en tiempo real con AllMySat

Download on the App Store